This is the latest recevied weather packets stored in our database for station/object WE0DX-1. If no packets are shown the sender has not sent any weather packets the latest 10 day(s).
| Time | Temp. | Humidity | Pressure | Rain* | Wind** | Luminosity | Snow |
|---|---|---|---|---|---|---|---|
| 1777947627 | 22.78° C | 55% | 1001.9 hPa | 0 mm | - | 0 W/m² | - |
| 1777947324 | 22.78° C | 55% | 1002 hPa | 0 mm | - | 0 W/m² | - |
| 1777947021 | 22.78° C | 55% | 1001.9 hPa | 0 mm | - | 0 W/m² | - |
| 1777946714 | 22.78° C | 54% | 1002 hPa | 0 mm | - | 0 W/m² | - |
| 1777946412 | 23.33° C | 54% | 1001.6 hPa | 0 mm | - | 0 W/m² | - |
| 1777946109 | 23.33° C | 54% | 1002 hPa | 0 mm | - | 0 W/m² | - |
| 1777945806 | 23.33° C | 54% | 1001.6 hPa | 0 mm | - | 0 W/m² | - |
| 1777945503 | 23.33° C | 54% | 1001.6 hPa | 0 mm | - | 0 W/m² | - |
| 1777945200 | 22.78° C | 55% | 1001.6 hPa | 0 mm | - | 0 W/m² | - |
| 1777944897 | 22.78° C | 55% | 1001.4 hPa | 0 mm | - | 0 W/m² | - |
| 1777944594 | 22.78° C | 55% | 1001.4 hPa | 0 mm | - | 0 W/m² | - |
| 1777944292 | 22.78° C | 55% | 1001.4 hPa | 0 mm | - | 0 W/m² | - |
| 1777943989 | 23.33° C | 55% | 1001.4 hPa | 0 mm | - | 0 W/m² | - |
| 1777943684 | 23.33° C | 54% | 1001.3 hPa | 0 mm | - | 0 W/m² | - |
| 1777943382 | 23.89° C | 54% | 1001.3 hPa | 0 mm | - | 0 W/m² | - |
| 1777943077 | 23.89° C | 53% | 1001 hPa | 0 mm | - | 1 W/m² | - |
| 1777942774 | 23.89° C | 52% | 1001.1 hPa | 0 mm | - | 4 W/m² | - |
| 1777942470 | 23.89° C | 52% | 1001.1 hPa | 0 mm | - | 5 W/m² | - |
| 1777942168 | 24.44° C | 52% | 1001.1 hPa | 0 mm | - | 8 W/m² | - |
| 1777941864 | 24.44° C | 51% | 1001 hPa | 0 mm | - | 12 W/m² | - |
| 1777941562 | 25° C | 51% | 1000.9 hPa | 0 mm | - | 13 W/m² | - |
| 1777941259 | 25° C | 50% | 1000.8 hPa | 0 mm | - | 18 W/m² | - |
| 1777940955 | 25.56° C | 48% | 1000.8 hPa | 0 mm | - | 17 W/m² | - |
| 1777940651 | 25.56° C | 48% | 1000.7 hPa | 0 mm | - | 17 W/m² | - |
| 1777940350 | 25.56° C | 47% | 1001 hPa | 0 mm | - | 18 W/m² | - |
* Rain latest hour (hover to see other rain measurements)
** Current wind speed in m/s (hover to see current wind gust speed)